Hutchinson, KS

8:11 AM CDT on July 28, 2017 (GMT -0500)
Hutchinson Municipal

Weather History for KHUT - April, 2014

Change the Weather History Date:

Tuesday, April 29, 2014

  Actual Average Record
Temperature  
Mean Temperature 44 °F -  
Max Temperature 51 °F 70 °F 86 °F (2007)
Min Temperature 41 °F 44 °F 34 °F (2005)
Degree Days  
Heating Degree Days 20    
Moisture  
Dew Point 36 °F    
Average Humidity 70    
Maximum Humidity 86    
Minimum Humidity 58    
Precipitation  
Precipitation 0.03 in - - ()
Sea Level Pressure  
Sea Level Pressure 29.76 in    
Wind  
Wind Speed 23 mph (NW)    
Max Wind Speed 32 mph    
Max Gust Speed 43 mph    
Visibility 10 miles    
Events Rain    
Averages and records for this station are not official NWS values.
T = Trace of Precipitation, MM = Missing Value Source: NWS Daily Summary

Daily Weather History Graph

Daily Weather History Graph

Search for Another Location

Airport or City:

Trip Planner

Search our weather history database for the weather conditions in past years. The results will help you decide how hot, cold, wet, or windy it might be!

Date:

Astronomy

Apr. 29, 2014 Rise Set
Actual Time 6:37 AM CDT 8:20 PM CDT
Civil Twilight 6:09 AM CDT 8:48 PM CDT
Nautical Twilight 5:35 AM CDT 9:23 PM CDT
Astronomical Twilight 4:59 AM CDT 9:59 PM CDT
Moon 6:56 AM CDT (4/29) 9:01 PM CDT (4/29)
Length of Visible Light 14h 39m
Length of Day
13h 43m
New Moon, 0% of the Moon is Illuminated
Apr 29
New Moon
May 6
First Quarter
May 14
Full
May 21
Last Quarter
May 28
New

Hourly Weather History & Observations

Time (CDT) Temp. Windchill Dew Point Humidity Pressure Visibility Wind Dir Wind Speed Gust Speed Precip Events Conditions
12:52 AM 48.0 °F - 35.1 °F 61% 29.57 in 10.0 mi WNW 18.4 mph 29.9 mph N/A   Partly Cloudy
1:52 AM 48.0 °F - 36.0 °F 63% 29.57 in 10.0 mi WNW 23.0 mph 32.2 mph N/A   Overcast
2:03 AM 46.9 °F - 35.1 °F 63% 29.60 in 10.0 mi WNW 32.2 mph 40.3 mph N/A   Overcast
2:52 AM 46.0 °F 36.7 °F 35.1 °F 66% 29.57 in 10.0 mi WNW 29.9 mph 42.6 mph N/A   Overcast
3:52 AM 46.0 °F 38.0 °F 35.1 °F 66% 29.58 in 10.0 mi WNW 21.9 mph 34.5 mph N/A   Overcast
4:52 AM 43.0 °F 32.4 °F 36.0 °F 76% 29.58 in 10.0 mi NW 31.1 mph 41.4 mph 0.00 in Rain Light Rain
5:52 AM 42.1 °F 32.8 °F 37.0 °F 82% 29.60 in 8.0 mi WNW 21.9 mph 33.4 mph 0.00 in   Overcast
6:52 AM 41.0 °F 30.5 °F 37.0 °F 86% 29.61 in 9.0 mi NW 26.5 mph 35.7 mph 0.01 in Rain Light Rain
8:52 AM 42.1 °F 32.8 °F 37.0 °F 82% 29.66 in 10.0 mi NW 21.9 mph 31.1 mph 0.01 in Rain Light Rain
10:52 AM 45.0 °F 36.4 °F 39.0 °F 80% 29.70 in 10.0 mi NNW 23.0 mph 36.8 mph 0.00 in   Overcast
11:52 AM 45.0 °F 36.2 °F 39.0 °F 80% 29.73 in 10.0 mi NW 24.2 mph 34.5 mph 0.00 in Rain Light Rain
12:52 PM 48.0 °F - 37.0 °F 66% 29.75 in 10.0 mi NW 26.5 mph 33.4 mph 0.00 in   Overcast
1:45 PM 48.0 °F - 35.1 °F 61% 29.78 in 10.0 mi NW 28.8 mph 39.1 mph N/A   Overcast
1:52 PM 48.0 °F - 35.1 °F 61% 29.77 in 10.0 mi NW 26.5 mph 39.1 mph N/A   Overcast
2:52 PM 48.0 °F - 36.0 °F 63% 29.78 in 10.0 mi NNW 24.2 mph 41.4 mph 0.00 in Rain Light Rain
5:25 PM 46.9 °F - 36.0 °F 66% 29.85 in 10.0 mi NW 20.7 mph 27.6 mph 0.00 in Rain Light Rain
5:43 PM 48.0 °F - 34.0 °F 58% 29.85 in 10.0 mi NNW 20.7 mph 31.1 mph 0.00 in   Overcast
5:52 PM 46.0 °F 38.5 °F 35.1 °F 66% 29.85 in 9.0 mi NNW 19.6 mph 33.4 mph 0.00 in Rain Light Rain
6:05 PM 45.0 °F 37.4 °F 36.0 °F 71% 29.87 in 10.0 mi NNW 18.4 mph 26.5 mph 0.00 in Rain Light Rain
6:24 PM 46.0 °F 39.6 °F 36.0 °F 68% 29.88 in 10.0 mi NNW 15.0 mph 27.6 mph 0.00 in   Overcast
6:52 PM 45.0 °F 37.9 °F 37.0 °F 74% 29.88 in 10.0 mi NNW 16.1 mph 25.3 mph 0.01 in Rain Light Rain
7:20 PM 44.1 °F 36.8 °F 37.0 °F 76% 29.89 in 8.0 mi NNW 16.1 mph 26.5 mph 0.00 in Rain Light Rain
7:52 PM 44.1 °F 36.5 °F 37.0 °F 76% 29.91 in 10.0 mi NNW 17.3 mph 24.2 mph 0.00 in   Overcast
8:04 PM 44.1 °F 36.5 °F 36.0 °F 73% 29.92 in 10.0 mi NNW 17.3 mph 27.6 mph N/A   Overcast
10:52 PM 43.0 °F 35.4 °F 35.1 °F 74% 29.99 in 10.0 mi NNW 16.1 mph 28.8 mph N/A   Overcast
11:52 PM 43.0 °F 35.4 °F 34.0 °F 71% 29.99 in 10.0 mi NW 16.1 mph - N/A   Overcast